Wind_Speed
9 8 7 8 9 10 12 13 14 15 15 15 16 16 16 14 12 9 5 5 6 7 10 14 16 17 19 20 19 19 16 15 13 10 9 7 6 4 3 2 1 0 1 2
8 8 9 9 10 11 12 13 14 14 15 16 15 15 15 13 12 9 6 4 3 5 7 11 15 16 17 18 19 19 17 15 13 11 9 8 6 5 4 3 2 1 1 2
9 8 9 9 10 11 11 13 14 14 15 15 15 14 14 12 12 10 7 4 3 4 6 9 13 15 17 17 18 18 15 15 13 11 10 8 7 5 4 4 3 2 1 2
10 9 9 9 10 11 12 13 14 14 14 14 14 13 13 12 11 10 9 5 3 2 3 7 12 14 16 17 17 17 16 14 13 12 10 9 8 6 5 4 3 2 1 1
10 10 10 10 11 12 12 13 14 13 13 13 13 12 12 12 11 10 9 7 4 2 1 5 10 13 15 16 16 16 15 14 13 11 11 9 8 7 6 5 4 3 2 2
11 11 11 12 13 13 13 13 14 13 13 12 12 10 10 11 10 9 8 7 5 3 1 2 6 11 13 15 15 15 15 14 13 12 11 10 9 8 6 6 5 5 4 4
12 12 13 13 13 12 13 14 13 12 12 12 13 10 9 9 9 8 6 5 5 4 3 1 3 7 10 13 15 15 15 14 13 12 11 10 9 8 8 7 7 7 6 6
13 13 15 15 13 14 14 13 12 11 11 12 13 10 10 9 8 7 6 5 4 4 3 2 2 5 7 10 12 13 14 14 13 13 12 11 10 10 9 9 9 9 9 8
14 14 15 16 15 16 15 12 11 12 12 10 10 12 12 11 9 8 7 6 5 4 4 3 2 4 6 8 10 12 13 13 13 13 13 12 12 11 11 11 11 11 11 11
15 16 17 17 17 16 14 13 12 11 11 10 10 11 11 12 10 9 9 8 6 6 5 4 4 5 6 8 9 11 12 13 13 13 14 14 13 13 14 14 14 14 14 14
16 17 18 18 17 16 14 13 12 12 12 9 9 10 13 12 10 10 9 9 8 7 6 6 6 6 7 9 10 11 12 12 13 14 15 16 16 16 16 16 17 17 17 17
18 17 18 18 17 15 14 13 13 12 12 11 10 11 14 12 11 11 10 10 10 10 9 8 8 8 9 10 11 12 12 13 15 16 17 18 18 18 19 19 19 20 20 20
18 17 16 16 16 16 15 14 14 14 13 12 9 11 16 14 13 12 12 13 12 12 12 11 11 11 11 11 12 13 14 15 16 18 19 20 20 21 21 22 22 23 23 23
19 18 17 15 16 16 15 14 14 14 12 12 12 13 16 16 15 15 15 15 14 13 13 13 13 13 13 13 14 15 15 16 18 19 20 21 22 23 24 24 25 25 25 26
21 20 19 18 17 16 16 16 16 14 13 13 13 15 17 18 17 17 17 17 17 16 16 16 15 16 15 16 16 17 18 19 20 21 22 23 24 25 26 27 27 27 28 28
22 21 19 19 18 17 18 18 17 15 15 15 15 16 18 18 18 18 18 19 19 19 19 18 18 18 19 19 20 21 22 22 22 23 24 26 26 27 28 28 29 29 30 30
22 21 19 19 20 19 19 18 17 16 16 16 16 17 18 18 19 19 20 20 20 22 22 22 22 22 23 23 24 24 25 26 26 26 27 28 29 29 30 30 31 31 32 32
24 23 21 20 22 20 19 18 18 18 18 18 18 18 18 18 19 20 21 22 23 24 25 25 25 25 26 26 27 27 28 28 29 29 30 30 30 31 32 32 33 33 33 33
24 23 22 21 21 21 20 18 18 18 18 18 18 19 19 19 20 21 22 22 23 25 26 27 28 28 29 29 30 30 30 31 32 32 32 32 32 33 34 35 35 35 34 34
24 23 22 21 21 20 22 20 19 18 19 18 19 19 20 20 21 21 21 23 24 26 27 29 30 31 31 31 31 32 32 33 34 35 34 34 35 35 35 36 37 37 37 37
24 22 21 20 20 20 22 19 19 19 19 19 19 19 19 20 22 22 22 22 23 25 26 28 30 31 32 32 33 34 35 35 35 36 37 37 37 38 38 38 38 39 40 41
22 22 21 20 20 22 21 20 19 20 20 20 19 20 20 21 22 23 23 24 24 24 25 27 29 30 30 31 32 33 35 36 36 36 37 37 37 38 40 41 41 41 41 43
21 20 20 21 22 22 21 21 21 21 21 21 21 21 22 22 22 23 23 24 25 26 26 27 28 28 29 29 31 32 34 35 36 37 38 38 39 39 40 41 42 43 44 44
20 20 21 21 22 22 22 22 22 22 23 23 23 23 23 24 24 24 24 25 25 25 25 26 25 26 27 29 31 32 33 34 34 35 37 38 38 38 40 41 43 44 46 47
20 20 20 21 21 21 22 23 23 24 24 24 24 24 24 25 25 26 26 26 26 26 26 26 27 27 28 28 30 31 32 33 34 35 36 38 39 41 42 43 44 46 47 48
21 21 21 22 22 22 23 24 25 25 25 25 26 25 26 26 27 27 27 26 26 27 27 28 28 29 29 30 31 32 33 34 36 37 39 40 41 42 43 45 46 48 50 52
Wind_Direction
309 313 316 313 320 322 325 328 330 330 333 337 342 342 342 344 340 336 317 279 254 243 220 213 212 213 214 213 213 212 210 208 209 209 208 206 203 200 199 196 206 99 37 32
294 298 300 307 314 320 325 329 328 328 334 337 340 341 343 346 350 351 338 314 276 239 227 215 214 211 209 212 208 206 209 206 205 205 205 200 194 191 188 188 178 138 86 70
275 276 289 302 311 317 324 325 324 324 330 335 338 342 344 349 353 358 358 342 323 259 234 215 208 206 204 204 200 200 203 201 204 206 203 196 189 185 187 189 179 154 123 88
264 269 279 292 300 307 315 317 321 323 330 335 335 343 344 350 355 359 4 360 349 314 242 210 200 200 198 198 198 198 200 202 205 206 201 195 192 190 192 191 184 177 165 112
255 262 272 282 288 298 307 314 320 322 327 330 330 336 338 343 351 357 1 4 358 341 267 204 199 202 202 199 199 201 200 201 203 205 201 201 197 196 196 195 197 203 213 227
251 257 266 276 285 293 303 309 318 323 329 331 324 329 334 337 343 346 353 3 5 2 348 197 198 201 204 204 202 202 203 204 204 207 207 205 204 205 206 208 215 225 234 243
249 256 266 276 286 293 301 308 321 326 324 316 313 315 319 325 333 336 340 351 358 352 341 295 200 197 204 206 205 207 207 205 208 210 211 210 212 215 219 224 231 240 248 255
243 255 265 272 281 290 296 301 303 306 306 305 309 307 307 314 323 325 322 326 333 338 334 322 225 199 201 208 210 213 212 211 214 216 220 219 221 226 232 236 240 248 255 262
242 253 262 268 275 280 287 292 294 303 307 308 302 301 300 301 308 310 310 311 314 316 317 303 264 230 223 221 218 215 215 217 221 225 227 228 231 236 240 244 248 253 258 264
247 256 264 270 272 274 279 286 289 299 300 300 303 304 294 294 299 300 298 297 299 298 293 282 272 256 243 234 225 224 222 224 228 231 233 235 238 242 246 250 255 258 261 265
251 256 265 270 271 273 276 279 282 286 287 290 290 288 285 284 286 291 291 290 291 290 286 276 265 263 252 240 234 232 234 235 237 238 240 242 244 247 252 255 259 262 264 267
252 256 260 268 268 265 269 274 280 284 286 289 285 281 280 279 277 281 282 282 281 285 285 283 276 267 261 256 250 247 246 247 247 247 248 248 250 252 256 259 262 264 267 270
251 256 262 267 268 265 266 270 274 279 281 281 278 278 276 275 273 275 275 276 278 278 279 281 278 272 268 264 262 259 256 254 253 253 254 255 256 258 260 262 264 266 269 272
253 256 253 251 259 268 272 270 271 275 279 278 271 264 268 269 271 271 271 273 276 276 276 275 274 272 271 269 267 264 262 261 260 259 259 260 260 261 262 264 266 268 271 273
253 260 260 255 259 267 270 269 270 271 272 269 267 265 263 265 268 268 268 268 272 273 274 275 274 273 272 270 268 267 265 265 265 264 263 263 264 265 266 267 269 271 273 275
252 258 261 258 259 265 268 267 268 269 270 269 266 265 264 264 265 265 266 266 267 268 271 271 271 271 270 270 269 268 268 267 266 267 267 267 267 267 268 269 271 273 274 277
252 257 256 257 260 264 268 264 263 267 270 270 268 267 266 264 262 263 262 261 261 264 267 267 267 268 267 266 268 268 268 268 267 265 267 268 268 268 269 271 273 274 276 279
252 253 252 258 263 261 261 259 259 264 269 270 269 269 268 264 262 262 261 259 258 259 263 264 264 264 264 264 264 266 267 268 268 267 267 267 269 270 272 272 273 275 277 279
252 254 253 256 261 258 259 257 259 264 268 271 271 270 269 269 267 263 262 261 261 259 262 262 262 263 263 263 263 263 264 265 266 267 267 267 269 271 273 273 274 275 277 279
250 253 254 255 252 251 253 256 261 267 270 271 270 271 271 270 268 267 266 264 264 263 262 262 262 263 262 261 261 262 263 264 265 266 266 267 268 269 271 272 274 277 278 279
246 247 250 252 252 250 254 257 262 265 269 269 270 273 273 271 268 267 266 266 266 266 267 265 263 264 263 262 261 261 262 263 265 266 266 266 266 269 271 273 274 277 279 280
242 245 247 250 251 253 255 258 262 266 268 270 271 272 273 273 270 267 266 265 266 268 270 269 266 265 265 264 263 262 263 264 267 269 270 269 270 273 274 276 277 279 280 281
237 239 245 247 250 254 257 259 262 265 266 269 271 271 273 274 273 271 270 268 269 272 271 270 269 267 266 267 268 269 267 268 269 270 271 270 271 273 276 277 280 282 283 283
239 241 246 250 252 255 258 261 262 265 267 269 271 272 272 273 275 274 274 273 273 275 275 273 272 273 272 271 271 274 275 274 274 273 274 275 277 279 281 281 283 285 285 285
244 246 249 252 254 257 259 262 265 268 269 270 270 271 272 273 272 273 275 274 275 276 277 278 276 276 277 277 278 280 281 280 280 281 281 281 283 285 284 284 285 286 286 287
249 251 253 256 259 261 264 266 267 268 269 270 271 271 271 273 273 274 274 274 276 277 277 278 279 278 279 280 281 283 284 282 282 281 282 283 285 286 286 287 288 287 288 288
Height
5894 5894 5894 5893 5891 5889 5887 5885 5883 5881 5877 5874 5871 5868 5864 5860 5857 5854 5853 5851 5851 5851 5852 5853 5855 5857 5860 5862 5865 5868 5870 5872 5875 5877 5879 5880 5881 5881 5882 5882 5882 5882 5881 5881
5892 5892 5892 5890 5889 5888 5886 5884 5882 5879 5876 5873 5870 5867 5864 5860 5857 5855 5852 5851 5850 5849 5850 5851 5852 5854 5856 5859 5862 5865 5868 5871 5874 5876 5877 5879 5879 5880 5881 5881 5881 5881 5881 5880
5890 5891 5889 5888 5887 5886 5884 5882 5880 5878 5875 5871 5869 5867 5863 5860 5858 5855 5853 5851 5850 5849 5849 5849 5850 5852 5854 5857 5860 5864 5866 5870 5872 5874 5876 5877 5878 5879 5880 5880 5880 5880 5880 5880
5887 5887 5887 5886 5885 5884 5883 5881 5878 5876 5873 5871 5869 5867 5863 5860 5858 5855 5853 5852 5850 5849 5849 5848 5849 5851 5854 5856 5859 5862 5865 5868 5871 5873 5874 5876 5877 5878 5879 5879 5880 5880 5879 5879
5884 5884 5884 5884 5883 5882 5880 5878 5876 5874 5872 5870 5868 5866 5865 5861 5858 5856 5854 5852 5851 5850 5849 5849 5849 5851 5853 5856 5858 5861 5864 5867 5869 5871 5873 5874 5875 5877 5877 5878 5879 5879 5879 5878
5881 5881 5881 5881 5880 5879 5878 5876 5874 5872 5871 5870 5867 5866 5864 5861 5858 5856 5855 5853 5851 5850 5850 5849 5850 5851 5853 5855 5857 5860 5863 5865 5868 5870 5871 5873 5874 5875 5876 5877 5877 5878 5878 5877
5878 5878 5878 5878 5877 5877 5876 5875 5875 5874 5872 5870 5866 5864 5863 5860 5858 5856 5855 5854 5853 5852 5851 5850 5850 5851 5852 5854 5856 5858 5861 5863 5866 5868 5869 5871 5872 5874 5875 5875 5876 5876 5876 5876
5876 5877 5875 5875 5875 5874 5873 5873 5873 5872 5870 5868 5864 5862 5861 5858 5857 5855 5855 5854 5853 5852 5852 5851 5851 5851 5852 5853 5855 5857 5859 5862 5864 5866 5868 5869 5871 5872 5873 5874 5874 5874 5874 5874
5872 5873 5872 5871 5871 5871 5870 5869 5869 5867 5866 5865 5863 5860 5858 5856 5855 5854 5854 5853 5853 5852 5852 5851 5851 5851 5852 5852 5854 5856 5858 5860 5862 5864 5866 5867 5868 5870 5871 5871 5871 5871 5871 5871
5867 5868 5868 5867 5867 5866 5867 5866 5865 5864 5864 5863 5862 5859 5857 5854 5853 5853 5852 5852 5852 5851 5851 5851 5851 5851 5851 5852 5853 5855 5857 5859 5861 5862 5864 5865 5866 5867 5868 5868 5868 5868 5868 5868
5863 5864 5864 5863 5863 5863 5862 5862 5861 5861 5860 5860 5860 5860 5854 5852 5852 5851 5850 5850 5850 5850 5850 5850 5850 5851 5851 5851 5852 5854 5855 5857 5858 5860 5861 5862 5863 5864 5864 5864 5864 5864 5864 5864
5858 5859 5859 5859 5858 5857 5858 5857 5857 5858 5857 5855 5855 5858 5851 5849 5849 5849 5848 5848 5848 5848 5848 5848 5849 5849 5850 5851 5851 5852 5853 5854 5855 5857 5858 5859 5859 5860 5860 5860 5860 5860 5859 5859
5853 5854 5855 5855 5855 5854 5853 5853 5853 5853 5852 5852 5853 5855 5848 5847 5846 5846 5845 5845 5845 5846 5846 5846 5846 5847 5847 5848 5849 5849 5850 5851 5852 5853 5854 5854 5855 5855 5855 5855 5855 5854 5854 5853
5848 5849 5851 5852 5850 5849 5849 5849 5848 5848 5848 5849 5848 5847 5845 5843 5843 5842 5842 5842 5842 5842 5842 5843 5843 5844 5844 5845 5845 5846 5846 5847 5848 5848 5849 5849 5850 5850 5850 5850 5849 5849 5848 5847
5842 5843 5843 5844 5844 5844 5844 5844 5843 5843 5843 5844 5843 5842 5840 5839 5839 5838 5838 5838 5838 5838 5838 5839 5839 5839 5840 5841 5841 5842 5842 5843 5843 5843 5844 5844 5844 5844 5844 5843 5843 5842 5841 5841
5836 5837 5838 5838 5839 5839 5839 5839 5839 5838 5838 5837 5837 5837 5835 5834 5834 5834 5834 5834 5834 5834 5834 5834 5834 5835 5835 5836 5836 5837 5837 5837 5837 5837 5838 5838 5838 5837 5837 5836 5836 5835 5834 5833
5829 5831 5833 5834 5834 5834 5834 5834 5833 5833 5832 5832 5832 5832 5830 5829 5829 5829 5829 5829 5829 5829 5829 5830 5830 5830 5830 5830 5831 5831 5831 5831 5831 5831 5831 5831 5830 5830 5829 5829 5828 5827 5826 5825
5823 5825 5826 5828 5828 5829 5831 5828 5828 5828 5827 5826 5826 5825 5825 5824 5824 5824 5823 5824 5824 5824 5824 5824 5824 5824 5824 5824 5824 5824 5824 5824 5824 5824 5823 5823 5822 5822 5821 5821 5820 5818 5817 5816
5816 5818 5820 5821 5822 5823 5823 5822 5822 5822 5821 5821 5820 5819 5819 5818 5818 5817 5817 5817 5817 5817 5817 5817 5817 5817 5817 5817 5817 5817 5817 5816 5816 5815 5815 5814 5814 5813 5812 5811 5810 5809 5808 5807
5810 5811 5814 5814 5816 5817 5817 5816 5816 5817 5816 5815 5814 5813 5813 5813 5812 5812 5811 5811 5811 5810 5810 5810 5810 5809 5809 5809 5809 5809 5808 5807 5807 5806 5806 5805 5805 5804 5803 5802 5800 5799 5797 5796
5803 5805 5806 5808 5809 5810 5809 5810 5810 5812 5811 5809 5808 5807 5807 5806 5806 5806 5805 5804 5804 5803 5803 5802 5801 5801 5800 5800 5800 5800 5799 5798 5798 5797 5796 5795 5794 5793 5792 5791 5790 5788 5786 5784
5797 5799 5800 5801 5803 5804 5802 5803 5804 5804 5803 5802 5802 5801 5800 5800 5799 5798 5798 5797 5797 5796 5795 5794 5793 5792 5792 5792 5791 5790 5790 5789 5788 5788 5787 5786 5785 5783 5782 5781 5778 5776 5774 5772
5790 5792 5794 5795 5797 5796 5796 5796 5797 5797 5796 5796 5795 5795 5794 5793 5792 5791 5791 5790 5790 5789 5788 5786 5785 5784 5784 5784 5783 5782 5781 5780 5779 5778 5776 5776 5775 5773 5771 5769 5767 5765 5763 5760
5784 5785 5787 5788 5788 5788 5789 5789 5790 5790 5790 5789 5789 5788 5788 5787 5786 5785 5784 5783 5782 5781 5780 5779 5778 5777 5776 5776 5775 5774 5772 5771 5769 5768 5767 5765 5763 5761 5760 5758 5755 5753 5750 5748
5777 5779 5780 5781 5782 5782 5782 5783 5783 5783 5782 5782 5781 5781 5780 5780 5779 5778 5777 5776 5775 5774 5773 5772 5771 5770 5769 5768 5767 5765 5764 5762 5761 5759 5757 5755 5753 5751 5749 5746 5743 5740 5737 5734
5771 5773 5774 5775 5775 5776 5776 5776 5776 5775 5775 5775 5774 5773 5772 5772 5771 5770 5769 5768 5768 5767 5766 5765 5763 5762 5761 5760 5759 5757 5755 5754 5752 5750 5747 5745 5742 5740 5737 5734 5730 5726 5723 5719